This is the latest recevied weather packets stored in our database for station/object KN4MGS. If no packets are shown the sender has not sent any weather packets the latest 10 day(s).
| Time | Temp. | Humidity | Pressure | Rain* | Wind** | Luminosity | Snow |
|---|---|---|---|---|---|---|---|
| 1777594419 | 17.78° C | 63% | 1014.5 hPa | 0 mm | - | 0 W/m² | - |
| 1777594114 | 18.33° C | 63% | 1014.5 hPa | 0 mm | - | 2 W/m² | - |
| 1777593810 | 18.89° C | 58% | 1014.3 hPa | 0 mm | - | 4 W/m² | - |
| 1777593507 | 18.89° C | 59% | 1014.3 hPa | 0 mm | - | 8 W/m² | - |
| 1777593201 | 19.44° C | 54% | 1013.9 hPa | 0 mm | - | 12 W/m² | - |
| 1777592900 | 20° C | 52% | 1014 hPa | 0 mm | - | 19 W/m² | - |
| 1777592596 | 20.56° C | 49% | 1013.9 hPa | 0 mm | - | 24 W/m² | - |
| 1777592293 | 20.56° C | 46% | 1013.8 hPa | 0 mm | - | 31 W/m² | - |
| 1777591989 | 21.11° C | 45% | 1013.8 hPa | 0 mm | - | 35 W/m² | - |
| 1777591685 | 21.11° C | 46% | 1013.9 hPa | 0 mm | - | 38 W/m² | - |
| 1777591381 | 21.11° C | 45% | 1014 hPa | 0 mm | - | 45 W/m² | - |
| 1777591076 | 21.67° C | 44% | 1013.8 hPa | 0 mm | - | 50 W/m² | - |
| 1777590773 | 21.67° C | 43% | 1013.8 hPa | 0 mm | - | 50 W/m² | - |
| 1777590468 | 22.22° C | 43% | 1013.8 hPa | 0 mm | - | 55 W/m² | - |
| 1777590166 | 22.22° C | 43% | 1013.6 hPa | 0 mm | - | 58 W/m² | - |
| 1777589862 | 22.78° C | 45% | 1013.4 hPa | 0 mm | - | 82 W/m² | - |
| 1777589557 | 22.78° C | 46% | 1013.5 hPa | 0 mm | - | 121 W/m² | - |
| 1777589256 | 23.33° C | 49% | 1013.4 hPa | 0 mm | - | 152 W/m² | - |
| 1777588953 | 22.78° C | 50% | 1013.3 hPa | 0 mm | - | 137 W/m² | - |
| 1777588649 | 22.78° C | 53% | 1013 hPa | 0 mm | - | 87 W/m² | - |
| 1777588344 | 23.33° C | 53% | 1013 hPa | 0 mm | - | 98 W/m² | - |
| 1777588040 | 23.33° C | 52% | 1013.1 hPa | 0 mm | - | 87 W/m² | - |
| 1777587736 | 23.33° C | 51% | 1012.9 hPa | 0 mm | - | 144 W/m² | - |
| 1777587430 | 23.89° C | 52% | 1012.8 hPa | 0 mm | - | 153 W/m² | - |
| 1777587127 | 23.89° C | 54% | 1012.8 hPa | 0 mm | - | 200 W/m² | - |
* Rain latest hour (hover to see other rain measurements)
** Current wind speed in m/s (hover to see current wind gust speed)